Regional Weather Roundup
Issued by NWS Sterling, VA

Home | Current Version | Previous Version | Graphics & Text | Print | Product List | Glossary On
Versions: 1 2 3 4 5 6 7 8 9 10 11 12 13 14 15 16 17 18 19 20 21 22 23 24 25 26 27
000
ASUS41 KLWX 280610
RWRLWX

REGIONAL WEATHER ROUNDUP
NATIONAL WEATHER SERVICE BALTIMORE MD/WASHINGTON DC
200 AM EDT THU JUL 28 2016

Note: "FAIR" indicates few or no clouds below 12,000 feet
with no significant weather and/or obstructions to visibility.
 TC=TEMPERATURE CELSIUS

 * =Non NWS site. Station does not report precipitation (e.g. rain,
    snow, etc.), thunder, or fog.

DCZ001-MDZ009-015-VAZ040>042-051-053>054-280700-
WASHINGTON METRO

CITY           SKY/WX    TMP DP  RH WIND       PRES   REMARKS
WASHINGTON NAT FAIR      82  76  81 S7        29.91S
DULLES         MOCLDY    75  70  84 CALM      29.92F
ANDREWS AFB    PTCLDY    77  73  87 CALM      29.91S
FT BELVOIR     FAIR      75  73  92 CALM      29.91S
QUANTICO       FAIR      80  76  87 W3        29.91F
COLLEGE PARK*  FAIR      77  72  83 CALM      29.90F
LEESBURG*      CLOUDY    77  73  88 CALM      29.93F
MANASSAS*      FAIR      75  75 100 CALM      29.92S
GAITHERSBURG*  MOCLDY    73  70  88 CALM      29.96F

$$

MDZ006>007-011-014-280700-
BALTIMORE METRO

CITY           SKY/WX    TMP DP  RH WIND       PRES   REMARKS
BWI AIRPORT    MOCLDY    81  71  71 CALM      29.91S
MD SCIENCE CTR   N/A     86  68  54 MISG      29.91S
MARTIN STATE   CLOUDY    79  77  94 CALM      29.92S
ANNAPOLIS      CLOUDY    82  73  74 CALM      29.90S
FORT MEADE*    MOCLDY    73  72  94 CALM      29.93S

$$

MDZ012-015-019>023-280700-
MARYLAND EASTERN SHORE

CITY           SKY/WX    TMP DP  RH WIND       PRES   REMARKS
OCEAN CITY     MOCLDY    78  76  93 CALM      29.91S
SALISBURY      PTCLDY    78  77  96 CALM      29.91S FOG
EASTON*        CLEAR     80  77  91 CALM      29.95S

$$

MDZ017>025-280700-
SOUTHERN MARYLAND

CITY           SKY/WX    TMP DP  RH WIND       PRES   REMARKS
PATUXENT RIVER CLEAR     78  73  84 SW3       29.90F
ST INIGOES     CLEAR     79  75  87 S3        29.90F
LEONARDTOWN*     N/A    N/A N/A N/A CALM      29.93

$$

MDZ003>005-280700-
NORTH CENTRAL MARYLAND

CITY           SKY/WX    TMP DP  RH WIND       PRES   REMARKS
FREDERICK*     CLOUDY    73  73 100 CALM      29.95S
HAGERSTOWN APT MOCLDY    77  69  76 SE3       29.94S

$$

MDZ501>502-280700-
WESTERN MARYLAND

CITY           SKY/WX    TMP DP  RH WIND       PRES   REMARKS
OAKLAND*       PTCLDY    68  64  88 SW3       30.08S
CUMBERLAND*    PTCLDY    77  68  73 N3        29.98S

$$

VAZ025>031-280700-
SHENANDOAH VALLEY

CITY           SKY/WX    TMP DP  RH WIND       PRES   REMARKS
WINCHESTER*    FAIR      72  70  94 CALM      29.95R
FRONT ROYAL*   FAIR      72  72 100 S6        29.94R
LURAY*         FAIR     N/A N/A N/A CALM      29.96F
NEW MARKET*    FAIR     N/A N/A N/A CALM      29.96S
STAUNTON*      FAIR      69  69  99 CALM      30.01S
WAYNESBORO*    MOCLDY    70  69  97 CALM      30.01R

$$

WVZ021-048>050-054>055-280700-
EASTERN WEST VIRGINIA PANHANDLE

CITY           SKY/WX    TMP DP  RH WIND       PRES   REMARKS
MARTINSBURG    FAIR      73  70  90 CALM      29.93S
PETERSBURG*    FAIR      74  71  93 CALM      29.97S

$$

VAZ036>039-050-280700-
CENTRAL FOOTHILLS

CITY           SKY/WX    TMP DP  RH WIND       PRES   REMARKS
CHARLOTTESVILL FAIR      74  72  93 NW3       29.95R
CULPEPER*      FAIR      74  74 100 CALM      29.93S FOG
ORANGE*          N/A     73  73 100 CALM      29.95F
GORDONSVILLE*  CLOUDY    73  73 100 CALM      29.93F
WARRENTON*     FAIR      74  69  84 CALM      29.92S HAZE

$$

VAZ055>057-280700-
NORTH AND CENTRAL PIEDMONT

CITY           SKY/WX    TMP DP  RH WIND       PRES   REMARKS
FREDERICKSBRG* FAIR      76  76 100 CALM      29.91S
STAFFORD*      FAIR      74  73  95 CALM      29.96S FOG

$$

NCZ024-NYZ072-PAZ021-071-VAZ022-071-280700-
OTHER REGIONAL OBSERVATIONS

CITY           SKY/WX    TMP DP  RH WIND       PRES   REMARKS
NEW YORK CITY  CLEAR     80  69  69 W3        29.93S
PHILADELPHIA   PTCLDY    77  73  87 CALM      29.92S
PITTSBURGH     PTCLDY    74  62  66 CALM      29.96S
ROANOKE        FAIR      74  73  97 CALM      30.01S
RICHMOND       FAIR      75  73  93 S3        29.92F
RALEIGH        PTCLDY    76  72  87 CALM      29.94F

$$

ANZ530>537-280700-
MARINE OBSERVATIONS

STATION/POSITION TIME  TEMP    WIND        PRES
                       AIR SEA DIR/SP/G
                 (UTC) (F)     (DEG/KT/KT) (MB)
THOMAS PT LIGHT  0600   83 85  250/  6/  6 1013.9F
BALT KEY BRIDGE  0542          190/  4/  5 1012.7S
COVE POINT       0542          280/  6/ 10 1013.2F
LEWISETTA        0542      88  260/  5/  6 1012.5F
SOLOMONS ISLAND  0536      86  290/  2/  3   N/A
PINEY POINT      0542          270/  3/  4   N/A

$$





USA.gov is the U.S. government's official web portal to all federal, state and local government web resources and services.